TimeMST,TemperatureF,Dew PointF,Humidity,Sea Level PressureIn,VisibilityMPH,Wind Direction,Wind SpeedMPH,Gust SpeedMPH,PrecipitationIn,Events,Conditions,WindDirDegrees,DateUTC
12:55 AM,39.2,23.0,52,30.02,25.0,SSW,4.6,-,N/A,,Scattered Clouds,210,2013-01-25 07:55:00
1:55 AM,37.4,23.0,56,30.04,25.0,NNW,1.2,-,N/A,,Scattered Clouds,330,2013-01-25 08:55:00
2:55 AM,33.8,23.0,65,30.05,25.0,South,13.8,-,N/A,,Scattered Clouds,170,2013-01-25 09:55:00
3:55 AM,33.8,23.0,65,30.06,25.0,SE,6.9,-,N/A,,Scattered Clouds,140,2013-01-25 10:55:00
4:55 AM,39.2,23.0,52,30.04,25.0,SSE,12.7,-,N/A,,Scattered Clouds,150,2013-01-25 11:55:00
5:55 AM,35.6,23.0,60,30.07,25.0,SSE,10.4,-,N/A,,Scattered Clouds,150,2013-01-25 12:55:00
6:55 AM,33.8,21.2,60,30.13,70.0,SE,15.0,-,N/A,,Mostly Cloudy,140,2013-01-25 13:55:00
7:55 AM,35.6,19.4,52,30.10,70.0,South,13.8,-,N/A,,Mostly Cloudy,180,2013-01-25 14:55:00
8:55 AM,42.8,23.0,46,30.07,70.0,South,13.8,-,N/A,,Mostly Cloudy,180,2013-01-25 15:55:00
9:55 AM,48.2,24.8,40,30.06,70.0,South,15.0,-,N/A,,Mostly Cloudy,190,2013-01-25 16:55:00
10:55 AM,51.8,26.6,38,30.06,70.0,South,16.1,-,N/A,,Mostly Cloudy,190,2013-01-25 17:55:00
11:55 AM,53.6,24.8,33,30.04,70.0,SSW,15.0,-,N/A,,Mostly Cloudy,200,2013-01-25 18:55:00
12:55 PM,55.4,24.8,31,30.00,70.0,SSW,5.8,-,N/A,,Mostly Cloudy,210,2013-01-25 19:55:00
1:55 PM,55.4,24.8,31,29.98,70.0,South,4.6,-,N/A,,Mostly Cloudy,180,2013-01-25 20:55:00
2:55 PM,55.4,24.8,31,30.00,70.0,NE,4.6,-,N/A,,Mostly Cloudy,50,2013-01-25 21:55:00
3:55 PM,53.6,26.6,35,30.01,70.0,East,5.8,-,N/A,,Mostly Cloudy,100,2013-01-25 22:55:00
4:55 PM,46.4,24.8,43,30.02,70.0,SE,5.8,-,N/A,,Mostly Cloudy,140,2013-01-25 23:55:00
5:55 PM,46.4,24.8,43,30.05,25.0,West,3.5,-,N/A,,Scattered Clouds,270,2013-01-26 00:55:00
6:55 PM,42.8,23.0,46,30.07,10.0,South,6.9,-,N/A,,Scattered Clouds,180,2013-01-26 01:55:00
7:55 PM,41.0,23.0,49,30.08,10.0,SSW,3.5,-,N/A,,Scattered Clouds,210,2013-01-26 02:55:00
8:55 PM,33.8,23.0,65,30.06,10.0,SSW,8.1,-,N/A,,Scattered Clouds,200,2013-01-26 03:55:00
9:55 PM,35.6,23.0,60,30.05,10.0,South,6.9,-,N/A,,Scattered Clouds,190,2013-01-26 04:55:00
10:55 PM,33.8,23.0,65,30.04,10.0,SSW,9.2,-,N/A,,Scattered Clouds,200,2013-01-26 05:55:00
11:55 PM,32.0,21.2,64,30.02,10.0,South,8.1,-,N/A,,Scattered Clouds,190,2013-01-26 06:55:00